This demonstration page uses our WeatherBlox Daily Observations layout. Learn more.

Left ArrowRight Arrow

39.29038, -76.61219

Hourly Observations for March 23, 2018

Temp ( °F °C ) Dew Point ( °F °C ) Humidity (%) Winds ( mph kmh ) Pressure ( in mb ) Visibility ( mi km ) Precip ( " mm )
12:54 am 00:54 undefined 41 5 20 -6.7 43 43 undefined N/A 30.10 1019 N/A 0.00 0.00
1:54 am 01:54 undefined 39 3.9 20 -6.7 46 46 undefined N/A 30.11 1020 N/A 0.00 0.00
2:54 am 02:54 undefined 38 3.3 20 -6.7 48 48 undefined N/A 30.10 1019 N/A 0.00 0.00
3:54 am 03:54 undefined 37 2.8 20 -6.7 50 50 undefined N/A 30.09 1019 N/A 0.00 0.00
4:54 am 04:54 undefined 36 2.2 20 -6.7 52 52 undefined N/A 30.10 1019 N/A 0.00 0.00
5:54 am 05:54 undefined 36 2.2 20 -6.7 52 52 undefined N/A 30.11 1020 N/A 0.00 0.00
6:54 am 06:54 undefined 36 2.2 20 -6.7 52 52 undefined N/A 30.12 1020 N/A 0.00 0.00
7:54 am 07:54 undefined 36 2.2 20 -6.7 52 52 undefined N/A 30.14 1021 N/A 0.00 0.00
8:54 am 08:54 undefined 38 3.3 19 -7.2 46 46 undefined N/A 30.16 1021 N/A 0.00 0.00
9:54 am 09:54 undefined 40 4.4 20 -6.7 45 45 undefined N/A 30.16 1021 N/A 0.00 0.00
10:54 am 10:54 undefined 42 5.6 20 -6.7 41 41 undefined N/A 30.15 1021 N/A 0.00 0.00
11:54 am 11:54 undefined 43 6.1 17 -8.3 35 35 undefined N/A 30.13 1020 N/A 0.00 0.00
12:54 pm 12:54 undefined 46 7.8 17 -8.3 31 31 undefined N/A 30.11 1020 N/A 0.00 0.00
1:54 pm 13:54 undefined 46 7.8 16 -8.9 30 30 undefined N/A 30.10 1019 N/A 0.00 0.00
2:54 pm 14:54 undefined 47 8.3 12 -11.1 24 24 undefined N/A 30.08 1019 N/A 0.00 0.00
3:54 pm 15:54 undefined 48 8.9 14 -10 25 25 undefined N/A 30.09 1019 N/A 0.00 0.00
4:54 pm 16:54 undefined 47 8.3 12 -11.1 24 24 undefined N/A 30.07 1018 N/A 0.00 0.00
5:54 pm 17:54 undefined 47 8.3 11 -11.7 23 23 undefined N/A 30.06 1018 N/A 0.00 0.00
6:54 pm 18:54 undefined 45 7.2 16 -8.9 31 31 undefined N/A 30.09 1019 N/A 0.00 0.00
7:54 pm 19:54 undefined 44 6.7 17 -8.3 34 34 undefined N/A 30.11 1020 N/A 0.00 0.00
8:54 pm 20:54 undefined 43 6.1 17 -8.3 35 35 undefined N/A 30.14 1021 N/A 0.00 0.00
9:54 pm 21:54 undefined 42 5.6 18 -7.8 38 38 undefined N/A 30.15 1021 N/A 0.00 0.00
10:54 pm 22:54 undefined 41 5 19 -7.2 41 41 undefined N/A 30.16 1021 N/A 0.00 0.00
11:54 pm 23:54 undefined 40 4.4 20 -6.7 45 45 undefined N/A 30.17 1022 N/A 0.00 0.00

Powered by AerisWeather